Starlink 11565

operational
NORAD ID: 62912 Int'l Des: 2025-027 Owner: SPXS Country: US Constellation: starlink
LEOCIRCULAR

关于 Starlink 11565

正在加载描述...

实时位置

正在加载3D地球...

即将过境

高度历史

Altitude vs Time

uPlot chart will show altitude changes over time

两行轨道根数

1 62912U 25027F 26034.58953064 .00227910 00000-0 17287-2 0 9999
2 62912 42.9981 192.7973 0001630 282.7327 77.3358 15.70876252 57798
Epoch: Feb 3, 2026 • Age: 17 hours

当前状态

高度 357.0 km
速度 7.70 km/s
星下点 32.09°N, 11.19°W
发射日期 Feb 8, 2025
运行时间 0.9 years
类型 internet

技术详情

分类 Payload
质量 960.00 kg
干质量 910.00 kg
总质量 960.00 kg
长度 0.30 m
直径 4.10 m
跨度 29.00 m
形状 Box + pan
制造商 SPXS
平台类型 Starlink V2MD
阶段状态 In Orbit
所有者/国家 SPXS/US

大型星座

Loading constellations...